User: anonymous   Login
Location: Unspecified
(0.0000°N, 0.0000°E)
Time: 20:33:47
(UTC+02:00)
Language:

DELTA 2 R/B (1) - Orbit

View from above orbital plane
View from above orbital plane
View from above satellite
View from above satellite

Ground track
Ground track

The orbit data is extracted from the following two-line orbital elements,

1 27665U 03005C   15150.02544237 -.00000048  00000-0  14877-4 0  9997
2 27665 039.5767 324.5859 0007137 076.3860 074.9110 14.28339729643787
Epoch (UTC): 30 May 2015 00:36:38
Eccentricity: 0.0007137
inclination: 39.5767°
perigee height: 792 km
apogee height: 802 km
right ascension of ascending node: 324.5859°
argument of perigee: 76.3860°
revolutions per day: 14.28339729
mean anomaly at epoch: 74.9110°
orbit number at epoch: 64378

The dashed part of the orbit path shows where the satellite is in the earth's shadow,  

DLR